| time (UTC) | temp F | wind direction | speed MPH | gust MPH | rain 1hr in | rain 24hr in | rain mn in | humidity % | barometer mb |
| 20260507150044 | 55 | 0 | 0.0 | 0.0 | 0.01 | 0.46 | 0.46 | 95 | 1011.8 |
| 20260507144551 | 55 | 0 | 0.0 | 0.0 | 0.01 | 0.46 | 0.46 | 93 | 1011.5 |
| 20260507143049 | 55 | 44 | 0.0 | 1.0 | 0.00 | 0.45 | 0.45 | 93 | 1011.4 |
| 20260507141555 | 55 | 0 | 0.0 | 1.0 | 0.00 | 0.45 | 0.45 | 92 | 1011.7 |
| 20260507140106 | 55 | 0 | 0.0 | 2.0 | 0.00 | 0.45 | 0.45 | 92 | 1011.7 |
| 20260507134545 | 55 | 0 | 0.0 | 1.0 | 0.00 | 0.45 | 0.45 | 93 | 1011.6 |
| 20260507133049 | 56 | 360 | 0.0 | 2.0 | 0.00 | 0.45 | 0.45 | 94 | 1011.4 |
| 20260507131601 | 56 | 0 | 0.0 | 1.0 | 0.00 | 0.45 | 0.45 | 95 | 1011.3 |
| 20260507130105 | 56 | 0 | 0.0 | 1.0 | 0.00 | 0.45 | 0.45 | 96 | 1011.1 |
| 20260507124552 | 56 | 0 | 0.0 | 0.0 | 0.00 | 0.45 | 0.45 | 96 | 1011.6 |
| 20260507123057 | 56 | 0 | 0.0 | 1.0 | 0.00 | 0.45 | 0.45 | 95 | 1011.4 |
| 20260507121554 | 56 | 0 | 0.0 | 1.0 | 0.00 | 0.45 | 0.45 | 95 | 1011.1 |
| 20260507120053 | 56 | 0 | 0.0 | 0.0 | 0.01 | 0.45 | 0.45 | 95 | 1011.2 |
| 20260507114548 | 56 | 0 | 0.0 | 1.0 | 0.01 | 0.45 | 0.45 | 95 | 1011.5 |
| 20260507113047 | 56 | 0 | 0.0 | 2.0 | 0.01 | 0.45 | 0.45 | 95 | 1011.4 |
| 20260507111547 | 56 | 0 | 0.0 | 1.0 | 0.02 | 0.45 | 0.45 | 95 | 1011.1 |
| 20260507110048 | 56 | 0 | 0.0 | 3.0 | 0.14 | 0.44 | 0.44 | 94 | 1011.1 |
| 20260507104548 | 57 | 0 | 0.0 | 3.0 | 0.32 | 0.44 | 0.44 | 94 | 1010.7 |
| 20260507103044 | 57 | 0 | 0.0 | 2.0 | 0.44 | 0.44 | 0.44 | 93 | 1010.6 |
| 20260507101549 | 58 | 0 | 0.0 | 2.0 | 0.43 | 0.43 | 0.43 | 92 | 1010.3 |
| 20260507100057 | 60 | 35 | 0.0 | 3.0 | 0.30 | 0.30 | 0.30 | 91 | 1010.3 |
| 20260507094553 | 62 | 0 | 0.0 | 2.0 | 0.11 | 0.11 | 0.11 | 90 | 1010.1 |
| 20260507093049 | 64 | 79 | 1.0 | 5.0 | 0.00 | 0.00 | 0.00 | 89 | 1009.8 |
| 20260507091548 | 66 | 0 | 1.0 | 2.0 | 0.00 | 0.00 | 0.00 | 93 | 1009.6 |
| 20260507090044 | 66 | 0 | 0.0 | 2.0 | 0.00 | 0.00 | 0.00 | 92 | 1009.5 |
| 20260507084553 | 67 | 0 | 0.0 | 0.0 | 0.00 | 0.00 | 0.00 | 92 | 1009.5 |
| 20260507083053 | 67 | 0 | 0.0 | 1.0 | 0.00 | 0.00 | 0.00 | 91 | 1009.2 |
| 20260507081541 | 67 | 0 | 0.0 | 2.0 | 0.00 | 0.00 | 0.00 | 91 | 1008.7 |
| 20260507080114 | 67 | 0 | 0.0 | 1.0 | 0.00 | 0.00 | 0.00 | 90 | 1008.6 |
| 20260507074546 | 68 | 220 | 1.0 | 2.0 | 0.00 | 0.00 | 0.00 | 89 | 1008.5 |
| 20260507073053 | 68 | 220 | 0.0 | 1.0 | 0.00 | 0.00 | 0.00 | 88 | 1008.9 |
| 20260507071601 | 68 | 264 | 0.0 | 3.0 | 0.00 | 0.00 | 0.00 | 88 | 1009.2 |
| 20260507070048 | 68 | 264 | 0.0 | 3.0 | 0.00 | 0.00 | 0.00 | 88 | 1009.3 |
| 20260507064552 | 68 | 266 | 1.0 | 6.0 | 0.00 | 0.00 | 0.00 | 88 | 1009.3 |
| 20260507063051 | 68 | 252 | 1.0 | 4.0 | 0.00 | 0.00 | 0.00 | 88 | 1009.1 |
| 20260507061544 | 68 | 255 | 1.0 | 4.0 | 0.00 | 0.00 | 0.00 | 87 | 1009.2 |
| 20260507060046 | 68 | 269 | 0.0 | 2.0 | 0.00 | 0.00 | 0.00 | 86 | 1009.1 |
| 20260507054555 | 69 | 230 | 1.0 | 2.0 | 0.00 | 0.00 | 0.00 | 86 | 1009.2 |
| 20260507053049 | 69 | 234 | 1.0 | 4.0 | 0.00 | 0.00 | 0.00 | 86 | 1009.5 |
| 20260507051549 | 69 | 269 | 1.0 | 4.0 | 0.00 | 0.00 | 0.00 | 85 | 1009.8 |
| 20260507050053 | 69 | 243 | 1.0 | 3.0 | 0.00 | 0.00 | 0.00 | 84 | 1010.2 |
| 20260507044545 | 70 | 254 | 1.0 | 3.0 | 0.00 | 0.00 | 0.00 | 82 | 1010.5 |
| 20260507043049 | 69 | 261 | 1.0 | 3.0 | 0.00 | 0.00 | 0.00 | 82 | 1010.4 |
| 20260507041544 | 69 | 241 | 0.0 | 2.0 | 0.00 | 0.00 | 0.00 | 83 | 1010.4 |
| 20260507034556 | 68 | 248 | 0.0 | 2.0 | 0.00 | 0.00 | 0.00 | 84 | 1010.3 |
| 20260507033046 | 68 | 236 | 0.0 | 1.0 | 0.00 | 0.00 | 0.00 | 85 | 1010.0 |
| 20260507031543 | 67 | 0 | 0.0 | 1.0 | 0.00 | 0.00 | 0.00 | 86 | 1010.1 |
| 20260507030043 | 67 | 0 | 0.0 | 0.0 | 0.00 | 0.00 | 0.00 | 86 | 1009.9 |
| 20260507024557 | 68 | 0 | 0.0 | 1.0 | 0.00 | 0.00 | 0.00 | 86 | 1010.0 |
| 20260507023042 | 67 | 0 | 0.0 | 2.0 | 0.00 | 0.00 | 0.00 | 86 | 1010.1 |
| 20260507021549 | 67 | 0 | 0.0 | 2.0 | 0.00 | 0.00 | 0.00 | 88 | 1010.1 |
| 20260507020100 | 66 | 236 | 0.0 | 1.0 | 0.00 | 0.00 | 0.00 | 88 | 1010.7 |
| 20260507014600 | 66 | 0 | 0.0 | 0.0 | 0.00 | 0.00 | 0.00 | 88 | 1010.4 |
| 20260507013044 | 67 | 0 | 0.0 | 0.0 | 0.00 | 0.00 | 0.00 | 87 | 1010.0 |
| 20260507011559 | 68 | 0 | 0.0 | 0.0 | 0.00 | 0.00 | 0.00 | 85 | 1010.1 |
| 20260507010050 | 68 | 0 | 0.0 | 1.0 | 0.00 | 0.00 | 0.00 | 83 | 1010.1 |
| 20260507004552 | 69 | 0 | 0.0 | 1.0 | 0.00 | 0.00 | 0.00 | 81 | 1010.0 |
| 20260507003052 | 70 | 0 | 0.0 | 2.0 | 0.00 | 0.00 | 0.00 | 80 | 1010.1 |
| 20260507001606 | 70 | 259 | 0.0 | 2.0 | 0.00 | 0.00 | 0.00 | 80 | 1010.3 |
| 20260507000058 | 70 | 248 | 0.0 | 2.0 | 0.00 | 0.00 | 0.00 | 79 | 1010.3 |
| 20260506234602 | 70 | 261 | 0.0 | 2.0 | 0.00 | 0.00 | 0.00 | 79 | 1009.9 |
| 20260506233048 | 71 | 0 | 0.0 | 3.0 | 0.00 | 0.00 | 0.00 | 80 | 1009.8 |
| 20260506231547 | 71 | 266 | 0.0 | 2.0 | 0.00 | 0.00 | 0.00 | 80 | 1009.9 |
| 20260506230053 | 71 | 0 | 0.0 | 1.0 | 0.00 | 0.00 | 0.00 | 79 | 1009.8 |
| 20260506224548 | 71 | 0 | 0.0 | 1.0 | 0.00 | 0.00 | 0.00 | 79 | 1009.9 |
| 20260506223049 | 71 | 0 | 0.0 | 1.0 | 0.00 | 0.00 | 0.00 | 78 | 1009.8 |
| 20260506221547 | 71 | 0 | 0.0 | 2.0 | 0.00 | 0.00 | 0.00 | 77 | 1009.7 |
| 20260506214547 | 72 | 263 | 1.0 | 3.0 | 0.00 | 0.00 | 0.00 | 75 | 1009.7 |
| 20260506213055 | 71 | 277 | 0.0 | 4.0 | 0.00 | 0.00 | 0.00 | 76 | 1010.0 |
| 20260506211550 | 71 | 285 | 1.0 | 4.0 | 0.00 | 0.00 | 0.00 | 75 | 1009.8 |
| 20260506210100 | 71 | 240 | 1.0 | 6.0 | 0.00 | 0.00 | 0.00 | 75 | 1009.8 |
| 20260506204551 | 71 | 252 | 1.0 | 8.0 | 0.00 | 0.00 | 0.00 | 75 | 1010.1 |
| 20260506203138 | 71 | 272 | 1.0 | 6.0 | 0.00 | 0.00 | 0.00 | 77 | 1009.9 |
| 20260506201549 | 70 | 0 | 0.0 | 3.0 | 0.00 | 0.00 | 0.00 | 77 | 1009.6 |
| 20260506200051 | 70 | 275 | 3.0 | 5.0 | 0.00 | 0.00 | 0.00 | 77 | 1009.4 |
| 20260506194549 | 70 | 222 | 1.0 | 5.0 | 0.00 | 0.00 | 0.00 | 78 | 1009.2 |
| 20260506193045 | 70 | 227 | 2.0 | 4.0 | 0.00 | 0.00 | 0.00 | 79 | 1009.6 |
| 20260506191552 | 69 | 244 | 2.0 | 6.0 | 0.00 | 0.00 | 0.00 | 80 | 1009.6 |
| 20260506190053 | 68 | 267 | 1.0 | 4.0 | 0.00 | 0.00 | 0.00 | 82 | 1010.0 |
| 20260506184559 | 67 | 276 | 2.0 | 7.0 | 0.00 | 0.00 | 0.00 | 83 | 1010.6 |
| 20260506183049 | 66 | 275 | 2.0 | 5.0 | 0.00 | 0.00 | 0.00 | 85 | 1011.1 |
| 20260506181548 | 66 | 219 | 1.0 | 6.0 | 0.00 | 0.00 | 0.00 | 86 | 1011.4 |
| 20260506180048 | 65 | 213 | 1.0 | 3.0 | 0.00 | 0.00 | 0.00 | 86 | 1011.6 |
| 20260506174604 | 65 | 223 | 1.0 | 3.0 | 0.00 | 0.00 | 0.00 | 86 | 1011.8 |
| 20260506173053 | 65 | 244 | 1.0 | 7.0 | 0.00 | 0.00 | 0.00 | 86 | 1011.4 |
| 20260506171547 | 65 | 261 | 1.0 | 5.0 | 0.00 | 0.00 | 0.00 | 87 | 1011.5 |
| 20260506170053 | 64 | 219 | 1.0 | 3.0 | 0.00 | 0.00 | 0.00 | 88 | 1011.8 |
| 20260506164557 | 64 | 212 | 1.0 | 4.0 | 0.00 | 0.00 | 0.00 | 89 | 1011.6 |
| 20260506163103 | 63 | 199 | 2.0 | 5.0 | 0.00 | 0.00 | 0.00 | 89 | 1011.6 |
| 20260506161549 | 63 | 171 | 1.0 | 4.0 | 0.00 | 0.00 | 0.00 | 90 | 1011.9 |
| 20260506160054 | 63 | 221 | 1.0 | 2.0 | 0.00 | 0.00 | 0.00 | 91 | 1012.3 |
| 20260506154555 | 62 | 0 | 0.0 | 2.0 | 0.00 | 0.00 | 0.00 | 91 | 1012.4 |
| 20260506153057 | 62 | 0 | 0.0 | 2.0 | 0.00 | 0.00 | 0.00 | 91 | 1012.7 |
| 20260506151544 | 62 | 0 | 0.0 | 1.0 | 0.00 | 0.00 | 0.00 | 91 | 1012.7 |